Theta_e
338 338 340 346 342 342 341 342 342 341 340 341 346 348 347 348 347 346 345 344 343 343 341 339 339 342 345 344 343 342 341 340 340 340 341 341 341 341 341 341 342 342 342 342 341 343 345 346 346 346 345 347 348 348 348 347 347 347 346 346 346 346 346 346 345 344 344 343 342 343 343 344 345 345 346 345 345 344 341 342 341 339 338 340 343
338 338 340 341 343 342 343 342 342 341 341 341 345 347 347 347 347 347 345 343 343 343 342 341 342 343 344 344 344 343 342 341 340 340 339 340 340 340 340 340 340 340 341 342 342 342 342 345 346 346 345 345 346 347 346 347 346 346 345 345 345 344 344 344 344 343 343 343 343 342 342 343 344 343 345 345 346 344 341 341 340 336 336 343 342
339 339 339 341 345 343 340 340 342 341 340 341 345 346 347 347 347 345 344 343 341 340 341 341 342 342 343 345 344 344 343 343 342 340 339 339 340 340 341 340 340 340 340 340 340 340 341 342 344 345 345 344 345 345 345 345 344 344 344 344 343 343 343 343 343 342 341 342 342 341 340 342 342 342 346 346 345 344 341 341 341 340 337 342 341
338 339 339 342 344 343 341 341 341 341 341 340 344 346 347 346 347 346 345 344 342 341 341 341 341 340 343 343 343 344 343 344 344 342 341 340 341 341 341 341 341 341 340 341 341 340 340 340 343 344 343 344 344 344 344 344 344 343 343 343 343 343 343 343 342 341 340 340 340 338 337 336 337 343 345 346 345 343 341 341 341 341 342 342 341
339 339 339 338 338 342 343 343 341 341 341 344 346 346 346 347 346 344 344 343 341 341 341 339 339 342 345 344 344 344 344 343 344 343 341 341 341 340 342 342 342 342 342 342 341 341 340 340 341 343 344 344 344 343 343 342 343 343 343 343 344 343 343 342 341 340 340 339 338 336 334 334 335 339 343 344 343 340 340 340 340 340 340 340 339
339 339 338 336 336 340 343 343 342 342 341 341 346 346 346 346 346 344 343 342 342 339 336 337 338 341 344 344 344 345 345 346 345 344 343 342 342 342 342 342 343 343 343 343 343 342 342 341 341 344 344 344 344 343 343 343 343 343 343 342 343 342 341 341 340 339 338 338 337 334 333 333 335 339 343 342 343 340 340 340 340 340 339 340 338
339 339 337 336 337 339 343 343 342 342 341 341 343 345 346 346 346 344 343 342 339 338 339 339 337 341 342 343 343 344 345 345 345 345 344 344 343 344 344 343 343 343 344 344 343 342 342 342 341 343 345 344 343 343 342 342 342 342 342 341 342 342 341 340 339 338 336 334 331 331 332 334 334 335 342 343 340 342 340 340 340 340 339 339 337
339 339 337 336 337 340 343 343 342 342 342 342 344 345 345 346 345 345 343 341 340 340 338 337 338 339 342 343 344 344 345 345 345 345 345 344 343 343 343 343 343 343 343 344 343 343 343 342 342 344 344 343 343 343 342 342 342 341 341 342 341 340 339 339 338 337 336 331 331 331 332 333 333 334 339 341 341 341 341 340 338 337 337 336 335
338 338 337 336 337 341 343 344 343 343 343 343 344 344 344 345 345 345 343 342 342 340 339 338 338 339 341 343 343 344 344 344 344 344 344 343 343 343 343 342 343 343 343 343 343 343 342 342 342 343 344 343 342 341 341 342 342 341 341 341 341 339 338 337 336 335 333 331 331 331 331 331 332 333 338 339 339 339 338 337 337 336 336 334 333
338 338 337 336 337 341 342 344 344 344 343 343 343 344 344 345 345 345 343 342 341 339 337 337 338 337 339 343 344 344 344 343 344 344 343 343 343 343 342 342 342 342 342 343 344 342 342 342 341 341 342 342 342 341 342 341 342 341 341 341 340 339 338 336 335 333 330 330 331 332 333 335 331 332 336 337 337 336 335 334 333 333 333 333 333
338 337 337 336 336 341 344 345 344 343 342 343 343 343 344 344 344 344 343 342 341 340 338 338 338 339 338 340 343 343 343 343 343 343 342 342 342 342 341 341 341 341 341 342 342 342 342 342 341 341 342 342 342 341 341 341 341 341 341 340 339 338 336 335 333 330 330 329 329 330 334 337 330 332 338 338 337 336 335 334 333 334 333 332 332
337 337 337 336 341 341 343 344 343 342 343 342 342 343 344 344 344 343 343 342 341 339 338 338 335 336 339 339 339 341 342 342 342 342 342 341 341 341 341 341 341 340 340 341 341 341 341 342 341 342 341 341 341 341 341 341 341 340 340 339 338 336 335 333 329 328 327 328 328 329 329 331 332 335 337 337 337 335 333 333 333 333 333 332 333
337 337 337 336 337 339 342 343 343 343 343 343 342 342 341 343 342 342 341 340 339 338 338 338 338 337 338 339 340 342 342 341 340 341 340 340 340 340 340 340 340 340 340 341 340 341 340 341 341 341 341 340 340 340 340 340 340 339 339 338 336 335 333 332 327 327 327 326 327 327 327 328 332 336 336 337 335 334 333 333 333 332 332 331 331
336 336 337 337 336 342 340 342 342 343 344 343 342 342 342 342 342 341 339 338 338 338 338 337 337 337 338 337 338 338 339 339 339 339 339 339 339 339 339 339 339 339 340 340 340 339 339 340 340 340 340 339 339 339 339 338 338 338 337 337 335 334 332 330 330 327 327 326 326 327 327 328 329 335 335 335 334 333 332 331 331 330 330 330 330
336 336 337 337 338 338 341 339 341 341 343 343 343 343 342 341 341 341 340 338 337 337 337 337 336 337 337 338 341 342 340 340 341 341 340 340 340 340 340 340 340 340 340 339 339 339 339 339 339 339 339 338 338 339 338 338 338 337 336 335 333 332 329 327 327 325 326 326 324 324 323 326 335 333 333 334 332 331 330 329 329 330 329 329 328
337 336 337 337 337 337 338 340 338 339 339 341 342 342 342 341 341 341 340 338 337 336 337 338 340 338 337 337 339 341 341 340 340 339 339 339 339 339 339 339 339 339 338 339 338 339 338 338 338 338 338 338 338 338 337 336 336 336 335 334 332 330 327 325 324 323 322 323 323 324 323 328 334 333 331 331 330 330 330 329 329 329 328 328 328
337 337 337 337 336 336 336 337 336 335 336 337 338 339 340 341 341 340 339 338 337 337 339 341 342 340 339 339 340 341 340 339 339 339 339 338 338 337 338 337 338 338 337 337 338 338 337 337 337 337 337 337 337 337 336 336 335 334 333 332 330 329 326 324 323 320 321 322 322 323 323 326 330 331 330 330 330 329 328 328 328 328 328 328 328
336 337 337 338 336 335 335 335 335 335 335 334 333 336 338 340 340 339 339 338 338 338 339 339 340 340 339 338 338 339 339 339 338 338 338 338 337 337 337 336 336 337 336 337 337 337 337 337 336 336 337 336 337 336 336 335 334 333 331 330 329 327 325 323 320 320 321 324 320 322 322 333 332 331 331 329 328 328 328 327 327 327 326 326 326
336 337 338 338 337 337 335 334 334 334 334 334 333 334 334 335 337 337 337 338 338 336 335 335 335 335 335 334 334 334 333 334 334 334 334 334 333 332 334 336 336 337 336 336 336 336 336 336 336 335 335 335 335 334 334 333 333 332 330 327 324 323 323 321 318 318 318 319 318 319 321 333 330 329 328 328 328 328 327 328 327 326 325 326 325
335 337 338 338 338 338 337 334 334 334 333 333 332 331 331 331 334 335 335 335 334 333 332 331 329 328 328 328 328 328 328 327 328 328 330 331 330 328 332 335 335 335 335 336 335 335 335 335 335 334 333 333 332 331 331 332 333 331 328 326 323 320 319 317 316 317 317 319 319 316 329 332 328 328 328 328 327 327 327 325 325 325 325 324 324
335 336 337 337 338 338 337 336 335 334 334 333 332 331 330 330 331 330 330 330 330 330 329 325 322 322 322 322 323 323 323 323 323 323 323 324 322 325 330 334 335 335 334 334 335 334 335 334 334 333 332 331 327 327 326 329 329 329 326 323 320 318 317 316 317 317 315 316 318 320 331 332 331 329 327 327 326 326 326 325 325 324 324 324 322
333 334 336 337 337 338 337 337 336 335 335 335 334 331 330 331 329 328 327 327 326 325 323 323 327 322 322 323 322 323 322 320 322 326 322 322 323 323 325 330 333 333 333 334 334 333 333 332 333 332 331 329 324 316 316 320 323 325 322 320 318 315 314 315 315 315 315 316 318 324 331 330 328 327 327 326 326 325 324 324 324 324 323 323 323
332 333 335 336 336 337 338 336 336 335 335 336 335 332 330 331 329 327 326 325 325 324 323 323 321 322 322 322 321 322 321 320 320 322 322 320 322 323 325 329 331 331 331 333 332 332 331 331 332 331 330 323 314 313 314 313 313 318 317 317 314 313 313 313 313 314 314 315 316 326 330 328 327 326 326 326 325 324 324 324 323 322 323 322 322
332 333 333 335 335 336 337 337 335 335 336 336 335 333 331 330 329 326 325 324 324 324 323 322 322 321 322 321 321 320 320 320 325 325 324 320 320 321 322 323 325 325 325 326 329 330 330 329 329 326 320 315 312 313 314 314 313 313 315 316 313 313 314 312 313 314 314 317 315 325 328 329 326 325 326 326 325 324 323 323 322 321 321 321 321
331 332 332 333 334 335 335 335 335 335 335 336 335 333 333 331 329 327 325 324 324 324 323 323 322 322 321 321 320 319 320 320 320 319 319 318 317 317 318 319 317 316 319 313 314 315 314 313 314 315 311 313 313 314 315 317 315 315 315 315 314 312 312 312 313 313 314 315 315 323 324 329 328 326 326 325 324 323 322 322 322 321 321 320 320
328 329 331 333 334 335 335 334 335 334 335 336 335 334 333 332 331 329 326 325 325 324 324 323 323 322 321 321 320 321 320 320 318 317 318 318 318 316 316 316 314 314 314 313 312 311 311 311 312 315 313 312 312 312 313 314 316 313 313 312 313 311 311 312 313 313 313 313 314 321 323 327 328 328 328 327 326 325 323 323 322 321 320 320 320
327 329 330 332 334 335 335 335 335 335 335 336 335 334 333 332 332 329 327 326 325 325 324 322 324 322 321 321 321 320 320 319 318 317 318 318 318 316 315 315 315 314 313 314 311 311 310 310 311 314 312 312 313 313 311 312 312 313 311 311 311 311 312 312 312 313 313 313 315 320 323 327 329 329 328 329 326 325 323 322 322 322 321 321 320
326 328 328 331 332 334 335 335 335 335 335 336 335 333 333 332 331 328 328 326 325 325 325 324 324 323 322 321 321 322 321 319 319 318 318 318 318 318 316 315 316 314 313 312 312 311 311 311 312 312 312 311 311 310 310 312 311 311 313 310 310 310 311 311 312 312 312 313 313 316 320 323 325 329 328 331 326 324 324 323 323 322 322 321 321
326 327 327 329 332 334 335 334 334 335 336 336 334 333 332 332 330 328 328 325 326 326 327 325 324 324 323 321 321 321 320 320 319 319 317 318 317 318 316 316 317 315 314 313 311 312 310 310 311 311 310 310 310 311 310 312 311 311 313 311 309 310 310 311 311 311 311 311 313 313 318 321 324 327 329 329 330 329 326 325 325 324 323 323 322
327 328 327 328 330 333 333 334 334 336 336 336 334 332 332 332 330 329 329 326 327 326 326 325 326 324 323 321 320 321 321 320 320 318 318 318 317 317 316 316 317 315 314 316 313 312 312 310 310 310 310 310 311 312 311 311 310 310 309 311 309 310 310 310 309 311 313 312 313 312 315 318 322 326 330 328 329 329 329 327 326 325 324 324 324
326 326 327 328 328 331 332 334 334 333 336 335 334 332 331 331 330 330 330 329 328 326 325 326 326 325 324 323 320 319 320 320 320 319 319 319 317 317 316 316 316 315 315 316 314 314 313 313 314 312 312 312 312 310 311 311 310 311 309 310 310 309 310 310 309 308 309 312 313 311 312 315 319 323 326 330 329 329 329 329 329 328 326 326 326
325 326 327 328 328 330 332 333 334 334 333 334 332 332 331 331 331 332 332 331 329 327 326 326 324 325 324 324 323 320 319 319 319 319 319 318 317 317 316 315 317 316 315 315 314 315 315 313 312 312 313 313 313 310 309 311 313 313 308 309 308 309 309 309 309 308 308 308 312 313 312 313 314 318 321 326 328 329 329 329 329 329 329 328 328
326 327 327 327 328 329 331 332 334 332 333 333 332 332 331 331 331 332 332 331 330 328 326 326 325 325 324 324 324 323 320 320 319 319 318 318 317 316 315 315 317 316 315 314 314 313 311 311 310 310 310 309 310 310 309 308 312 312 310 311 308 310 311 310 311 307 307 307 308 309 312 311 311 313 315 318 323 327 328 329 329 329 329 329 328
325 326 327 327 328 330 331 332 332 332 332 333 332 332 331 331 331 331 330 330 330 328 327 326 326 325 324 324 324 324 322 322 320 318 318 317 317 316 317 315 315 313 314 313 313 312 312 310 310 309 312 311 310 309 308 310 309 308 307 308 307 310 311 312 312 312 308 308 307 305 308 310 311 312 312 314 317 320 324 327 328 328 328 329 328
325 325 326 327 327 329 331 332 330 332 331 332 330 331 330 330 330 330 329 328 328 328 327 327 328 328 327 325 323 323 323 322 321 320 318 317 316 314 314 317 314 312 312 312 313 311 312 312 309 310 308 307 307 305 306 309 308 311 311 308 309 309 307 311 312 310 309 312 310 309 308 308 308 311 312 311 311 314 318 322 326 328 328 329 330
325 326 326 327 326 327 328 331 330 331 331 332 331 331 330 330 331 327 330 328 328 327 327 327 328 328 328 326 325 324 323 322 320 319 318 316 316 315 315 314 312 313 313 310 310 312 311 311 309 311 309 310 307 311 305 307 307 309 309 308 309 308 311 310 311 311 311 308 309 310 310 310 309 308 308 310 311 312 315 318 321 323 325 326 328
326 326 326 326 326 326 326 330 329 331 331 331 331 329 330 329 330 330 330 328 328 328 327 327 326 326 326 325 325 324 323 322 321 320 320 317 315 316 313 314 312 313 311 310 311 312 312 312 309 309 310 310 308 309 309 309 309 309 308 308 309 310 310 310 310 309 306 307 308 307 308 308 308 307 308 309 309 309 311 313 316 318 319 320 323
325 325 326 326 326 326 326 328 330 331 332 331 330 330 329 329 329 330 329 329 328 328 328 327 326 326 325 324 324 324 323 322 322 322 321 320 317 316 314 313 313 313 311 311 311 310 310 312 312 308 310 309 309 309 309 310 310 310 309 308 308 304 306 307 306 303 303 304 304 305 306 306 307 307 307 308 309 309 310 311 313 314 313 315 318
325 325 326 326 326 325 325 325 327 329 330 331 329 329 328 328 328 328 328 329 329 328 328 327 327 326 326 325 324 324 323 323 322 321 321 319 317 315 315 313 313 312 312 311 309 309 308 308 310 311 310 312 313 311 311 311 311 310 310 310 306 302 302 302 302 302 301 302 303 304 301 303 304 305 306 306 306 308 309 310 310 311 311 312 315
325 324 324 325 325 325 324 325 326 329 329 329 328 327 326 325 326 324 327 328 330 328 328 328 327 327 325 325 324 324 323 323 323 322 322 320 318 316 316 315 314 313 313 312 312 310 311 312 312 312 312 311 311 311 309 309 307 307 307 308 305 301 301 301 300 301 302 303 304 302 302 302 302 303 304 305 305 305 305 306 306 309 310 311 312
324 324 323 324 325 325 323 323 325 327 328 328 326 327 326 324 324 326 327 329 329 330 329 329 328 327 326 325 324 324 324 324 322 323 323 319 318 317 317 316 316 314 314 314 314 313 314 314 313 312 311 311 310 307 307 308 308 307 308 306 306 303 302 302 303 302 303 303 301 301 300 300 301 302 304 302 304 304 305 305 305 306 307 308 309
322 323 322 323 325 325 324 324 324 325 328 329 327 327 328 328 327 327 327 326 327 327 328 329 329 327 326 326 326 327 327 326 323 323 323 322 319 316 316 316 315 315 315 315 315 312 313 312 310 308 309 311 309 308 307 309 305 306 306 304 301 304 304 303 302 302 302 302 301 300 300 300 301 302 303 303 303 302 302 302 302 304 305 306 307
323 323 324 324 324 324 325 325 324 324 326 328 328 327 327 326 326 322 326 319 321 327 329 329 328 328 327 327 327 328 327 325 324 322 323 321 319 317 316 315 315 315 314 314 313 313 312 311 310 310 307 307 309 307 307 309 308 302 303 302 302 301 301 299 296 297 300 300 298 298 299 298 300 300 299 298 299 299 300 300 301 302 303 305 306
321 322 323 323 324 324 325 325 325 325 325 326 325 328 327 323 319 317 320 322 321 320 322 323 326 326 326 327 327 327 325 324 323 322 323 321 319 318 316 313 314 315 315 314 312 312 310 310 311 311 311 308 305 308 307 307 308 306 303 302 299 298 299 300 295 299 297 297 297 298 299 299 299 298 295 297 298 298 300 301 302 302 303 304 305
319 321 322 323 325 324 325 325 325 325 325 324 324 325 321 318 316 313 314 315 313 319 320 322 325 324 327 327 327 326 324 323 323 322 320 322 321 320 318 317 315 314 315 314 312 311 311 312 312 311 310 310 309 307 305 305 306 309 308 301 299 297 298 301 302 305 298 299 296 296 296 297 297 297 296 297 296 298 299 301 302 302 302 303 304
319 321 322 323 324 324 325 325 325 325 325 324 324 323 323 323 318 319 317 317 317 318 321 323 324 323 326 328 327 327 326 325 323 323 323 322 322 322 320 318 315 312 311 313 313 311 311 311 312 312 311 311 311 306 303 303 305 306 307 309 307 305 303 300 302 299 301 301 298 296 295 297 297 298 298 297 297 298 298 300 301 302 302 303 303
318 319 321 322 323 324 324 325 325 325 325 324 322 321 322 323 322 322 322 320 320 320 319 319 324 324 324 325 326 325 326 326 324 323 322 321 321 320 319 318 317 315 313 314 314 314 313 313 312 310 310 308 307 306 307 307 302 303 303 305 304 302 303 302 298 298 298 299 299 300 300 298 297 296 298 298 298 298 299 299 299 300 300 301 302
317 318 319 321 322 322 323 323 324 323 324 324 321 322 323 323 322 321 321 320 320 320 317 314 314 317 321 323 324 324 324 325 324 322 322 320 319 320 319 318 318 318 315 315 315 315 312 310 309 309 309 309 309 309 308 307 306 303 301 302 302 302 302 301 301 299 297 294 298 301 300 300 299 299 299 299 297 298 298 298 297 297 297 298 299
315 316 317 319 321 321 321 322 323 322 322 322 321 321 322 323 322 322 320 319 319 315 308 309 314 314 319 320 322 323 323 323 323 323 322 322 320 321 321 319 318 317 313 315 314 313 312 311 309 309 309 309 309 309 308 307 306 307 300 299 299 300 300 299 299 298 296 294 296 297 299 300 298 298 299 299 299 298 298 299 298 297 296 297 297
313 313 313 314 317 318 318 318 320 321 321 320 320 321 321 320 321 320 320 318 313 308 310 312 313 313 316 315 319 320 321 321 321 322 321 321 321 320 320 319 317 317 312 313 313 313 312 311 311 310 309 308 307 307 307 306 306 305 304 301 298 297 298 297 297 296 295 296 294 295 297 296 295 298 298 298 299 298 298 297 297 296 296 297 297
302 304 309 311 312 314 316 316 319 319 318 319 319 320 321 320 321 320 320 318 314 312 311 311 312 312 315 314 316 318 318 320 319 319 321 320 320 318 320 319 317 313 313 314 312 311 311 311 310 308 307 307 306 305 304 305 304 304 303 303 303 302 301 298 298 296 296 292 293 294 296 296 297 298 300 298 297 296 297 296 296 297 297 297 296
Wind_Speed
4 5 3 8 10 10 11 11 11 11 11 10 11 11 11 11 11 13 14 14 14 15 15 14 14 16 16 17 17 16 16 17 17 18 17 18 18 18 18 18 17 17 17 17 17 16 17 18 19 19 19 19 19 20 20 21 21 20 21 20 19 19 19 20 20 19 20 18 17 17 16 17 18 19 20 21 21 19 17 17 15 12 9 16 21
8 4 4 5 11 10 11 11 12 12 11 9 11 12 12 11 11 13 13 13 14 15 15 14 15 16 16 17 16 16 16 17 17 17 17 17 18 18 18 18 18 18 17 17 17 17 16 17 18 19 19 19 20 20 19 19 19 19 19 19 19 19 19 19 19 19 19 19 20 19 18 19 17 19 21 21 21 20 17 18 18 11 8 19 21
6 5 4 5 9 10 11 12 11 11 11 11 11 12 12 11 10 13 14 14 14 13 14 14 15 16 16 17 17 16 16 15 17 17 17 17 17 17 18 18 19 19 18 18 18 17 17 17 18 18 18 18 18 18 18 18 19 19 19 19 19 19 19 19 18 18 18 18 16 16 16 17 18 19 20 21 20 19 17 18 18 17 12 21 18
8 4 4 6 8 9 11 11 11 11 9 9 11 11 11 11 12 13 13 13 14 13 13 13 14 14 15 16 16 16 16 16 16 16 16 17 18 17 17 18 17 19 18 19 18 18 17 17 18 18 18 18 17 17 17 18 18 18 18 19 19 19 19 18 18 18 17 16 15 12 7 7 10 18 19 19 20 19 16 19 19 19 20 19 20
8 5 4 4 4 8 10 11 12 11 10 11 10 11 11 10 10 13 13 13 13 13 14 14 14 15 15 15 15 14 15 16 16 16 16 16 17 17 17 17 18 18 18 18 19 18 18 18 18 18 18 17 16 16 17 18 18 18 18 18 18 18 18 18 18 19 18 15 13 10 6 7 6 17 19 21 20 18 18 19 19 19 19 20 19
8 5 5 4 4 6 10 10 11 10 10 11 12 12 12 11 10 13 13 13 12 13 12 12 12 15 14 14 14 15 15 16 16 16 16 16 16 17 17 17 18 17 18 19 19 18 18 18 17 18 18 17 17 17 18 17 17 18 18 18 18 18 18 17 17 15 14 15 13 7 7 4 5 7 19 19 19 16 18 18 18 17 18 19 18
9 6 5 5 4 6 9 10 11 11 10 10 11 11 12 11 10 10 14 13 12 11 13 14 13 14 14 14 14 14 15 15 16 16 16 16 17 17 17 17 16 17 17 18 18 18 17 17 18 18 19 17 17 17 17 17 17 18 18 18 19 18 17 17 15 14 13 10 5 5 5 6 7 5 16 17 17 18 19 18 17 17 17 17 17
7 6 5 5 4 7 9 10 11 11 11 10 10 12 12 12 10 8 13 13 12 12 12 11 12 13 14 14 14 14 15 15 16 16 16 16 16 16 17 16 17 17 18 18 18 17 17 17 18 18 19 18 18 18 17 18 18 18 18 18 18 17 16 16 15 14 13 7 5 5 6 5 4 4 15 16 17 18 18 18 16 16 17 17 13
8 6 6 5 4 9 9 9 11 11 11 10 11 12 12 12 11 9 11 13 13 13 12 11 12 12 14 14 14 14 14 15 16 15 15 15 16 16 16 16 16 17 17 18 18 17 16 17 17 18 18 19 18 18 18 18 18 18 18 18 17 16 15 14 13 11 8 5 5 5 5 5 5 6 14 17 17 17 16 13 14 16 17 15 16
8 7 6 5 5 10 9 9 11 11 11 11 11 13 12 12 11 9 11 12 12 12 12 10 11 12 12 14 14 14 14 14 15 15 15 16 15 15 16 16 16 17 16 17 17 17 16 16 17 17 18 18 18 18 17 17 17 17 17 17 16 15 15 14 13 9 6 5 6 5 6 9 4 6 13 17 18 17 16 11 11 9 10 16 16
8 7 6 5 6 10 10 10 10 11 11 11 11 12 12 12 11 10 12 12 13 13 11 10 11 13 12 12 14 14 14 14 15 15 15 15 15 15 15 15 16 16 16 16 16 16 16 16 16 16 16 16 17 17 17 17 17 17 16 16 15 15 14 12 9 6 6 6 6 5 7 7 4 5 14 16 16 15 12 14 13 13 14 15 15
8 7 6 5 8 10 11 10 10 11 10 11 11 12 12 12 12 12 13 12 12 12 11 11 10 11 13 12 12 13 14 14 14 14 14 14 14 15 15 15 15 15 15 15 15 15 14 14 14 15 14 15 15 16 16 16 16 16 16 15 15 13 12 11 7 6 5 6 5 4 4 4 4 9 15 14 14 14 12 13 13 14 13 13 13
9 8 7 5 5 8 11 11 10 10 11 11 11 12 13 12 12 12 11 10 10 11 11 11 10 11 12 11 12 13 12 13 13 13 14 13 13 13 14 14 15 15 15 15 15 14 14 14 14 14 14 14 14 15 15 15 15 15 15 14 14 13 11 9 6 6 5 4 4 3 3 3 4 12 12 13 12 12 12 12 13 13 13 12 12
10 8 7 6 4 9 11 11 10 10 10 11 11 11 11 12 11 12 10 10 9 10 11 11 11 11 11 11 11 10 12 12 12 12 12 13 13 13 13 13 13 14 14 14 15 14 13 13 13 13 13 13 13 13 14 14 14 14 13 13 12 11 11 8 6 5 4 4 3 3 3 3 4 11 10 10 12 11 10 11 11 12 12 11 12
11 10 9 6 5 5 10 11 10 10 9 9 10 9 11 11 11 12 12 10 10 9 10 11 11 12 11 12 12 12 11 13 14 13 13 13 13 13 13 13 13 13 13 14 14 13 13 13 12 12 12 11 12 13 14 13 12 11 11 11 10 9 9 5 5 4 4 3 3 3 2 1 7 8 9 12 10 9 9 10 10 11 11 10 10
11 10 9 6 5 5 5 8 10 10 9 9 8 9 10 11 11 12 12 11 10 9 10 11 11 11 11 11 11 13 14 13 13 13 11 11 13 13 13 13 13 12 13 13 13 12 12 12 11 11 10 10 11 12 13 14 12 11 9 8 8 8 8 5 4 4 3 3 3 2 3 1 10 10 10 8 8 10 10 10 10 9 10 10 9
10 9 10 8 6 4 5 5 6 10 8 8 8 9 9 10 11 12 11 11 10 9 10 11 11 11 11 11 10 12 13 13 12 11 10 11 12 11 11 12 12 12 12 12 12 12 11 11 10 10 9 9 10 11 11 12 12 11 9 7 8 7 7 6 4 3 3 3 3 4 4 5 8 8 7 9 11 10 8 8 9 9 9 9 9
9 10 10 10 7 5 5 4 6 6 5 6 8 8 9 9 10 10 10 10 9 9 9 9 10 10 10 10 9 10 11 11 10 10 8 9 9 9 9 11 11 11 11 11 11 11 11 10 9 9 8 8 9 9 10 11 11 10 9 7 8 8 7 6 3 3 3 3 4 3 3 2 8 8 10 8 8 8 9 8 8 8 8 7 7
8 9 9 9 8 6 5 5 5 5 5 5 4 6 9 9 9 9 10 9 9 10 9 9 10 10 10 9 10 10 10 11 10 10 9 9 8 8 9 9 11 10 11 11 11 11 10 9 8 7 7 7 8 8 9 9 8 8 9 8 7 7 8 5 3 3 3 3 2 3 3 4 8 7 7 8 8 9 8 7 7 7 7 7 6
7 8 9 8 8 8 6 5 5 5 5 5 4 4 7 9 8 9 10 10 10 10 10 9 9 9 10 9 9 8 8 7 9 7 9 8 8 6 8 8 10 10 10 10 9 9 9 8 7 6 6 6 7 7 7 8 7 7 8 7 6 6 5 4 4 3 3 2 1 1 2 3 7 7 8 8 7 7 6 6 6 6 6 5 6
5 7 8 8 8 8 8 6 6 5 5 5 4 4 5 8 7 9 9 10 10 10 9 9 8 8 8 8 7 5 4 4 5 4 6 5 8 9 8 8 8 8 8 9 9 8 8 7 6 5 5 6 6 6 6 6 7 8 8 7 6 4 3 4 4 3 2 2 2 1 6 7 6 8 6 6 6 5 5 6 5 5 5 5 4
7 7 7 8 9 8 9 8 6 7 6 5 4 4 4 6 4 4 4 6 8 8 7 5 6 4 7 6 4 4 4 3 4 5 4 4 6 9 8 8 7 7 7 8 8 7 6 5 5 5 6 6 5 4 4 5 6 6 7 8 5 3 2 3 3 3 3 1 1 3 4 5 7 5 4 5 5 5 4 3 4 4 3 3 4
9 7 7 8 8 8 8 8 8 7 7 6 5 5 5 4 4 4 4 5 5 5 5 5 4 4 4 4 5 4 4 3 3 4 3 5 6 8 8 8 8 8 8 7 6 6 5 5 4 4 4 4 3 3 3 3 3 5 6 4 3 2 2 2 2 3 3 2 2 2 2 1 5 4 4 4 4 3 3 3 2 2 3 3 2
10 8 8 7 8 8 9 9 8 8 7 6 5 5 5 5 5 4 4 4 4 4 4 4 4 4 4 4 4 3 3 3 4 7 6 4 4 6 7 7 8 7 7 5 5 5 4 4 3 3 3 3 2 3 3 3 3 3 3 4 3 1 3 2 3 3 2 2 2 2 2 5 3 0 4 4 4 3 2 3 3 2 1 1 1
9 7 7 8 9 9 8 8 8 8 8 6 7 6 5 5 5 4 4 4 4 4 4 4 4 4 4 4 3 3 3 4 4 3 4 3 4 3 3 3 3 3 4 3 2 1 2 1 1 1 1 1 2 3 4 4 4 4 4 4 3 1 2 3 3 2 3 2 2 2 0 3 3 3 4 2 2 1 1 1 2 2 1 1 1
7 8 9 8 9 9 9 8 8 8 8 7 7 6 6 5 6 5 5 4 4 4 4 5 5 4 4 4 4 4 4 4 3 3 3 4 4 3 3 3 2 3 1 2 1 0 1 1 0 1 0 1 2 2 3 1 3 3 3 3 3 2 0 3 3 3 3 3 3 3 2 2 4 4 8 6 7 5 5 4 2 1 1 3 2
8 8 8 8 9 9 9 9 9 9 9 8 6 6 6 6 5 6 6 6 4 5 5 4 5 4 4 4 5 4 5 4 4 4 4 4 4 3 3 3 3 3 2 3 2 1 1 1 1 1 1 2 3 4 3 1 0 0 2 2 1 3 0 3 2 3 3 3 4 5 4 3 5 5 4 10 7 6 4 3 4 4 4 4 5
8 8 8 8 9 11 10 10 10 10 8 8 7 7 6 6 6 6 5 6 6 5 5 5 4 5 4 5 5 6 6 5 5 5 5 4 5 4 3 3 3 3 2 2 2 1 1 0 0 0 1 1 2 3 1 2 1 1 2 3 3 2 1 1 3 2 2 4 4 5 5 5 5 5 8 9 7 6 6 5 6 6 6 5 6
10 9 8 8 10 10 10 11 10 11 9 9 8 7 7 7 6 6 6 6 6 6 6 5 5 5 5 5 5 6 5 6 6 5 5 5 4 4 4 5 4 3 3 3 2 3 2 1 1 2 2 3 1 2 2 1 0 1 1 2 2 3 1 1 1 3 3 3 5 5 7 7 6 6 6 9 9 9 9 8 9 8 8 8 8
11 9 9 8 8 10 11 11 11 11 10 9 8 8 8 8 7 7 7 6 6 6 5 6 6 6 6 6 6 6 7 6 6 5 6 6 5 4 5 5 5 4 4 5 5 4 4 2 2 2 2 3 3 4 1 2 2 1 1 1 2 3 3 2 2 3 5 4 4 5 8 8 8 7 7 8 10 10 9 11 11 11 11 11 11
9 10 9 8 8 9 10 10 11 10 9 10 9 9 9 8 8 8 7 7 7 6 6 6 6 6 6 6 6 6 6 6 6 6 5 6 5 5 5 5 5 5 5 5 4 5 4 5 5 4 3 4 5 3 2 3 4 4 2 1 3 2 3 3 1 2 3 4 4 4 5 10 9 9 9 9 10 12 11 11 13 13 12 13 13
11 12 10 8 8 10 11 10 11 11 11 10 9 9 9 9 9 8 8 8 8 7 7 7 7 6 6 6 6 6 6 5 5 5 6 6 6 6 6 5 6 5 5 5 5 5 5 4 4 3 4 4 4 3 2 3 5 5 3 3 3 3 3 3 3 1 3 3 3 5 5 5 8 10 10 10 11 12 13 13 11 13 15 14 15
9 11 11 9 11 10 10 10 11 11 12 11 9 8 9 9 9 9 8 8 8 7 7 7 7 6 5 7 7 6 6 6 6 6 6 6 5 6 5 6 6 6 5 5 5 4 3 2 3 2 2 2 2 3 1 2 4 5 4 4 3 4 5 3 4 3 3 3 4 4 6 5 5 8 10 10 10 11 13 14 13 13 14 14 15
9 9 10 12 10 8 8 8 10 12 12 10 9 8 8 8 8 8 8 8 8 8 8 7 7 6 6 5 7 7 6 6 6 6 6 6 5 5 6 6 5 4 5 4 5 5 4 3 4 2 4 4 4 4 2 4 4 3 4 4 1 4 4 5 5 5 3 3 3 3 4 4 6 6 6 9 11 11 12 13 14 14 15 16 16
8 9 13 14 11 10 9 8 10 11 11 10 11 10 8 8 8 8 8 8 7 8 8 7 7 7 6 6 5 6 6 6 6 7 6 6 6 5 5 6 4 4 5 5 5 4 3 5 3 3 3 3 3 3 3 4 4 5 5 3 4 3 3 6 5 5 5 4 2 3 4 4 4 5 6 6 8 11 11 12 13 14 15 16 16
12 13 12 11 12 11 11 10 10 12 11 11 10 9 9 8 8 8 8 8 7 8 7 7 7 7 7 7 6 5 6 6 5 5 6 6 6 6 6 4 4 4 4 3 3 4 4 4 4 4 4 4 3 5 3 4 4 5 5 4 6 4 5 5 6 5 5 3 5 4 5 5 4 5 5 5 6 7 11 9 9 13 14 15 17
13 12 12 12 12 11 12 12 13 13 12 11 10 8 8 8 8 8 8 8 8 7 7 7 6 7 6 7 7 7 7 6 6 6 6 6 6 6 6 5 4 5 5 4 5 4 4 4 4 4 4 5 4 5 5 4 5 5 5 5 6 6 6 6 5 5 3 4 5 5 5 5 5 5 5 5 4 5 6 7 7 9 12 12 15
11 13 13 14 14 12 11 12 11 12 11 11 10 9 8 8 7 7 8 8 8 7 7 7 7 7 7 7 7 7 7 6 6 6 6 6 6 6 4 5 4 4 4 4 6 3 3 4 5 3 4 3 4 4 6 5 4 5 5 5 6 4 6 5 5 4 4 5 5 6 6 5 5 5 5 5 5 5 5 6 10 11 13 13 13
9 12 12 12 11 10 10 11 11 11 11 10 9 8 8 6 6 7 7 8 7 7 7 7 7 6 7 7 7 6 7 6 6 6 6 6 5 5 5 5 5 5 5 5 4 4 3 3 5 4 2 4 4 3 4 3 4 4 4 6 4 4 4 4 3 3 4 4 6 6 3 6 5 6 6 5 5 5 6 6 6 6 7 11 11
11 10 11 11 11 10 9 10 11 11 9 9 8 8 7 8 8 5 8 9 8 8 7 8 7 7 7 7 7 7 7 7 7 6 6 6 6 6 6 5 6 6 6 6 7 6 7 5 6 5 4 3 2 2 1 3 3 3 6 6 4 4 4 5 4 4 5 5 7 4 5 6 5 6 6 6 5 5 5 6 5 6 7 9 11
10 11 11 12 13 13 12 13 11 11 10 10 10 10 10 8 7 10 11 9 8 8 8 7 7 7 8 8 8 7 7 7 7 6 7 6 6 5 6 5 6 6 6 8 6 6 6 6 5 4 4 3 2 1 1 1 1 5 4 5 6 4 5 5 7 6 6 6 5 5 6 6 6 6 6 3 5 6 6 6 6 6 7 7 8
12 11 12 14 13 13 14 13 10 11 12 13 11 11 11 12 11 11 9 8 8 9 9 8 9 7 8 8 8 8 8 8 7 7 7 6 6 5 5 7 6 6 6 5 5 5 4 4 3 2 3 6 4 4 4 2 2 4 5 6 5 6 6 5 6 6 5 5 5 5 6 5 7 6 5 5 6 6 5 5 5 6 7 7 7
14 15 15 14 14 13 12 12 11 12 12 12 11 12 10 9 10 7 9 5 5 7 7 7 7 8 8 8 8 8 8 8 7 7 7 6 6 6 6 6 6 6 5 5 5 5 5 5 5 6 3 0 2 2 4 6 5 1 1 2 5 6 3 2 2 3 5 6 4 4 3 5 8 6 5 4 6 5 5 4 5 6 7 8 7
11 11 12 15 13 12 12 12 12 12 12 12 13 12 10 6 5 4 5 7 6 5 5 5 7 8 9 8 8 8 8 7 7 7 6 6 7 7 6 6 6 6 6 6 5 6 4 4 5 5 2 2 2 4 4 4 4 3 3 2 1 0 7 2 3 5 4 3 1 3 3 5 6 4 3 5 6 5 5 5 6 6 7 7 7
13 15 15 14 12 14 14 14 13 13 12 12 13 9 6 5 4 3 4 3 2 4 5 7 8 8 7 9 9 7 7 7 7 7 7 7 7 6 7 7 6 7 6 6 5 7 7 6 7 6 6 6 5 4 1 3 5 5 4 0 2 1 5 4 4 7 1 1 2 3 3 4 4 4 4 5 5 5 5 5 5 5 7 7 7
15 15 13 15 13 13 14 13 11 11 12 12 13 10 10 11 9 8 8 7 8 7 12 15 11 10 12 7 6 8 7 7 7 7 7 6 7 6 6 6 5 6 6 7 7 4 3 3 6 7 7 7 7 4 3 2 4 3 4 5 3 4 4 1 2 5 2 3 2 1 3 4 4 4 4 5 5 5 4 6 6 6 6 6 6
15 11 11 13 13 13 14 14 13 11 12 11 11 10 10 10 13 14 12 12 12 10 8 4 7 6 4 6 6 6 7 8 7 7 6 6 6 5 6 6 6 5 5 5 5 5 5 6 6 5 6 3 2 4 5 3 1 3 4 5 5 3 0 2 3 3 7 2 1 1 4 4 4 3 5 5 5 5 6 5 5 5 5 6 6
14 11 12 11 14 14 13 14 12 12 11 10 11 12 13 12 12 12 12 11 12 12 7 5 4 5 6 7 6 6 7 7 7 6 6 6 6 5 5 5 5 5 5 6 6 5 4 2 4 5 3 5 5 5 4 4 4 2 3 5 4 4 3 2 3 5 5 7 9 3 3 5 4 3 5 5 5 6 6 6 6 6 6 6 5
9 11 12 12 12 12 12 11 12 10 10 11 12 12 13 13 13 12 11 10 9 6 4 4 6 6 8 6 7 7 6 6 6 6 6 6 6 6 6 5 5 5 5 4 4 4 5 5 4 4 5 5 6 5 3 4 4 5 2 2 1 4 2 2 2 2 3 4 6 5 7 4 4 5 6 6 5 4 5 6 7 6 6 7 6
9 8 7 6 8 8 10 11 12 10 10 11 12 13 12 11 11 12 13 11 7 4 5 6 6 6 8 8 7 7 6 6 6 7 7 6 6 6 6 6 6 6 6 5 5 4 4 4 4 4 4 3 2 2 4 3 3 2 2 2 2 1 0 0 0 0 2 4 8 8 7 9 12 6 3 4 4 4 4 6 6 6 6 7 7
5 5 6 7 7 8 9 11 13 10 9 11 12 13 12 11 13 13 14 13 10 8 7 7 6 6 8 8 7 7 6 6 5 6 7 7 6 6 6 5 5 5 5 6 6 5 5 4 4 3 3 4 4 3 2 2 2 2 2 3 3 3 4 2 2 2 1 2 4 6 5 4 6 13 7 4 4 4 5 5 6 7 7 7 6
Wind_Direction
203 158 167 132 124 125 118 107 108 119 117 113 96 101 99 99 104 100 97 95 97 94 89 88 95 89 83 83 81 81 79 79 79 78 77 79 79 76 74 73 73 74 74 73 77 79 78 77 73 73 74 73 74 74 74 76 75 73 73 72 70 69 67 63 61 60 53 61 76 80 83 90 90 88 87 84 81 76 73 72 69 69 68 75 74
169 170 145 134 131 127 119 115 115 116 116 114 94 99 101 104 105 99 98 96 88 90 94 95 93 92 90 87 85 85 84 84 82 82 84 81 76 80 83 82 78 76 74 72 73 80 83 81 79 77 76 75 76 74 72 71 70 73 75 75 75 74 71 68 66 64 62 63 63 67 76 82 83 89 90 86 85 82 80 77 76 75 76 77 76
139 146 144 133 135 126 122 122 122 121 117 116 102 97 104 106 109 105 102 98 95 93 95 98 92 87 90 90 90 90 91 89 87 82 81 85 84 79 77 78 79 80 80 80 78 80 83 81 80 78 78 77 75 73 72 75 80 81 80 79 78 77 74 70 68 65 65 64 63 68 66 68 78 85 85 88 88 86 83 84 84 83 84 81 80
136 149 137 137 134 130 125 126 122 113 116 115 98 100 106 116 113 109 104 100 97 94 88 83 88 91 85 91 93 90 90 91 91 89 83 83 85 84 82 82 83 83 81 80 79 81 82 84 82 81 77 75 72 71 77 84 85 83 81 79 78 80 76 71 69 68 66 63 61 62 59 61 75 83 87 87 86 87 89 89 88 86 84 83 83
138 140 134 127 123 128 124 119 122 126 129 119 110 106 111 112 114 108 105 102 103 100 91 87 93 91 89 91 92 94 98 95 92 92 89 82 83 85 84 83 83 81 82 84 84 83 85 87 86 80 75 70 68 74 83 86 86 85 82 82 80 76 75 73 72 71 71 69 68 65 56 63 62 83 89 89 88 84 84 84 85 84 83 84 84
141 137 131 125 125 128 128 126 124 125 120 116 107 111 114 116 115 113 107 101 96 95 105 114 100 93 92 89 89 87 87 92 93 92 90 87 84 84 86 84 83 85 84 83 84 86 87 88 85 78 73 63 63 77 83 85 85 84 83 82 80 78 76 74 71 68 66 68 64 60 60 55 53 77 86 87 89 90 87 84 83 83 83 82 82
137 136 131 131 131 136 136 131 127 124 119 117 108 109 112 119 115 113 107 103 99 103 95 87 96 92 91 91 87 86 90 93 97 94 89 85 84 86 85 85 86 84 85 85 85 87 88 89 85 73 64 63 74 83 84 83 84 84 85 85 81 79 76 74 72 70 69 71 54 52 55 56 69 77 81 88 89 85 83 82 79 79 80 81 81
128 132 134 133 139 142 133 133 128 121 119 114 113 110 109 114 116 103 111 107 99 91 91 96 91 97 98 97 95 93 96 98 92 90 88 89 87 84 87 89 88 87 87 88 89 91 91 91 81 74 71 71 79 85 87 86 86 87 85 83 80 79 76 74 72 71 72 66 64 62 63 65 73 65 89 86 84 83 84 83 82 83 83 81 74
136 136 134 137 144 139 136 133 133 128 124 122 116 111 113 119 118 114 113 107 104 100 101 103 100 87 92 93 95 96 95 95 93 92 92 89 86 85 84 84 86 86 86 89 89 89 91 90 81 76 75 74 77 84 88 89 86 85 86 86 83 80 77 73 69 68 65 55 55 58 60 62 61 73 81 79 78 78 74 73 81 85 87 87 87
139 135 136 141 149 142 139 142 136 133 128 124 118 114 116 118 121 127 114 109 108 108 106 104 101 105 94 94 96 95 94 95 95 92 90 88 88 86 87 87 86 86 86 87 87 89 94 90 81 76 76 76 78 85 88 88 88 88 89 86 84 80 77 73 66 60 62 54 54 58 74 78 65 82 87 85 84 83 83 82 85 81 87 91 92
141 140 139 147 154 149 147 141 135 134 131 129 126 119 117 121 123 118 111 108 108 112 109 105 107 107 107 103 99 99 99 97 95 92 88 87 87 87 84 83 84 84 87 88 88 88 92 89 79 74 71 68 72 80 85 88 91 90 88 87 84 81 78 74 67 61 59 61 59 50 75 65 76 90 92 91 91 94 99 94 89 90 89 89 87
143 142 142 150 156 153 144 136 137 138 137 134 128 125 121 124 121 112 109 112 114 111 112 108 103 102 106 106 100 95 95 96 94 92 91 90 90 88 87 87 86 86 85 83 82 85 89 88 78 70 66 64 67 76 84 87 90 91 91 89 87 84 79 75 73 67 63 66 67 69 53 45 69 90 92 94 95 92 87 89 92 90 88 87 89
146 145 144 154 155 156 143 142 141 140 140 136 132 128 128 130 123 112 110 112 118 118 117 116 112 113 101 105 108 102 100 95 92 93 93 94 94 93 93 91 89 87 86 85 84 84 88 86 78 70 65 62 65 76 82 86 88 91 93 93 92 88 82 74 75 73 66 62 64 57 55 55 74 85 82 81 79 84 89 89 91 91 92 94 95
146 147 147 152 157 155 146 143 144 144 142 141 135 131 128 124 122 117 116 117 118 123 121 120 117 109 109 112 107 105 102 99 99 94 92 93 91 90 89 89 89 87 85 85 84 84 85 84 77 69 64 61 64 70 79 86 87 89 93 94 95 94 91 85 80 79 75 66 63 56 61 71 89 94 92 93 92 83 78 84 79 78 80 83 82
148 150 146 149 156 155 150 147 146 144 144 141 138 134 132 129 125 125 123 122 122 128 128 122 123 113 114 111 78 74 87 95 91 89 89 91 92 89 88 89 89 89 88 86 85 85 85 84 79 71 65 61 61 63 69 74 80 84 90 92 88 87 89 86 76 79 79 73 56 47 12 18 87 89 93 92 85 92 92 83 81 84 84 84 88
149 148 142 150 150 152 151 151 143 143 144 142 137 136 133 132 130 129 128 126 127 131 131 118 100 118 118 114 98 94 95 94 93 95 94 95 97 98 96 91 91 91 90 89 88 88 89 86 83 76 69 67 64 66 71 70 67 65 68 76 80 79 77 78 76 70 68 55 36 33 26 87 96 86 81 88 96 94 95 100 99 98 99 95 89
147 146 144 150 150 151 153 148 144 141 140 138 138 136 135 136 133 132 132 130 130 133 110 106 107 104 108 105 100 97 96 97 93 86 86 93 96 97 99 99 99 98 96 96 94 91 88 86 81 75 67 64 65 67 68 65 65 66 66 69 85 86 80 74 71 57 53 45 30 16 6 55 67 82 85 94 95 92 93 92 95 91 80 73 73
152 150 151 151 152 153 154 146 143 138 137 136 137 138 137 135 133 132 131 132 130 112 105 105 106 103 103 103 101 100 99 99 96 91 87 87 90 89 99 104 104 102 101 100 98 97 95 91 85 75 67 60 60 62 59 58 57 57 59 64 98 105 97 89 80 63 53 41 24 3 5 7 91 99 90 81 81 87 94 98 93 87 89 94 85
155 156 152 153 156 152 153 151 146 142 141 139 141 141 136 133 132 132 130 126 113 113 111 108 109 110 106 106 104 103 103 102 101 100 95 94 88 89 92 102 110 108 107 103 101 100 97 94 88 76 66 62 57 56 53 50 50 54 54 61 73 96 103 98 94 77 66 50 24 22 6 59 104 82 75 85 100 102 104 89 83 83 82 86 96
160 159 159 162 157 157 156 157 155 152 147 145 145 142 139 137 135 132 130 127 124 122 119 115 115 114 114 110 107 101 98 99 99 95 95 89 89 91 101 106 112 111 108 110 107 106 103 99 95 83 73 63 56 50 40 39 37 42 52 61 83 98 101 106 105 89 77 61 39 348 331 62 80 93 102 102 95 96 83 80 82 81 86 84 73
162 170 166 164 161 161 158 161 162 156 151 147 145 144 147 138 133 133 134 133 130 131 127 124 120 120 118 117 107 102 104 101 94 98 92 93 92 87 91 93 99 109 111 113 112 108 103 98 99 94 79 53 34 36 37 33 32 28 36 54 71 96 116 114 113 114 90 84 61 8 69 44 79 98 108 112 97 88 82 77 69 80 81 74 71
171 173 179 169 164 168 167 165 162 163 156 151 149 146 148 138 139 138 136 136 133 132 133 138 136 137 132 125 119 118 112 111 109 106 104 101 94 98 96 96 86 91 110 118 114 109 106 111 102 97 83 51 24 18 11 14 26 20 33 51 57 80 101 129 125 125 128 114 91 71 74 123 125 108 74 73 81 67 77 86 121 116 97 83 68
173 177 182 177 173 170 170 169 171 167 161 157 155 155 152 144 149 148 146 147 149 143 147 146 149 148 150 138 135 130 129 126 129 125 116 109 112 109 107 102 100 93 90 95 115 112 110 104 93 95 77 45 33 6 1 2 358 12 21 51 59 72 105 112 131 136 147 160 142 124 28 85 86 97 98 74 73 83 86 127 94 63 72 82 86
175 179 176 182 176 174 174 174 172 170 165 165 158 163 162 156 156 156 153 159 163 159 158 160 162 164 153 139 140 133 127 120 123 121 111 104 105 106 110 108 107 105 102 93 86 99 98 68 71 54 47 31 20 4 1 348 341 8 14 18 71 22 131 154 157 161 157 176 170 85 45 12 144 235 137 149 130 145 129 69 38 41 84 32 62
172 168 174 183 182 177 175 175 173 172 170 167 166 171 168 163 161 161 164 168 174 174 171 169 176 175 156 152 147 130 131 132 131 127 120 120 120 123 117 117 108 108 107 107 103 73 65 52 28 47 19 20 13 350 1 344 333 5 5 352 12 37 143 151 174 173 187 189 196 138 24 358 232 168 153 120 116 105 272 171 169 149 247 245 213
161 174 183 179 185 181 176 176 173 175 176 173 177 172 167 170 167 172 167 175 179 186 183 180 181 185 169 163 139 137 143 143 146 145 144 144 144 160 157 138 136 158 134 140 144 118 61 66 107 191 337 7 347 325 317 285 309 335 343 336 354 51 5 167 175 191 208 205 213 202 218 236 272 206 173 172 163 165 170 207 212 267 224 269 277
176 183 178 182 183 184 181 172 176 177 180 178 174 170 181 182 178 173 171 180 180 184 199 191 189 188 176 162 148 158 159 166 162 163 165 164 168 182 180 174 167 182 190 150 195 220 180 92 120 240 0 353 333 319 315 302 243 9 14 345 45 81 266 171 206 214 222 224 232 212 224 255 270 290 259 189 178 200 229 242 243 238 227 254 274
172 181 179 182 184 187 183 175 177 177 179 176 174 179 183 179 180 175 189 180 174 190 200 196 187 191 181 180 166 165 165 171 178 173 179 173 184 190 185 187 187 194 180 175 181 227 220 124 78 344 306 295 271 288 331 330 4 56 12 350 346 80 95 213 194 223 292 274 242 238 229 231 260 280 290 295 263 228 226 235 254 257 262 246 235
183 188 182 180 189 185 180 181 177 180 177 174 179 182 181 182 178 181 190 184 187 194 197 197 184 195 183 171 164 165 172 175 176 186 168 188 188 184 190 205 196 198 171 211 191 193 219 200 217 246 270 272 229 251 248 249 29 357 20 324 329 317 132 166 215 211 230 261 280 258 244 239 242 247 270 276 286 279 244 227 231 247 250 248 238
191 187 185 188 184 185 182 183 178 181 177 175 183 181 182 183 184 186 189 182 198 195 191 203 196 185 186 171 170 169 178 180 184 180 174 194 193 189 195 213 209 188 176 201 212 183 197 199 227 249 252 255 256 251 216 288 306 278 200 242 286 270 283 175 196 218 219 224 254 283 270 244 236 245 248 261 274 272 271 254 249 247 251 245 237
185 193 195 191 182 182 187 183 179 179 179 181 180 184 181 186 185 189 185 189 195 190 193 201 202 189 188 177 169 177 181 186 182 181 192 192 196 187 201 208 222 197 189 205 197 198 190 191 198 210 217 227 237 247 229 260 281 295 268 254 257 263 261 262 173 200 219 224 228 246 274 278 258 246 248 257 260 269 267 267 270 258 247 249 250
191 198 195 189 183 187 185 185 179 178 180 187 180 182 185 187 185 189 190 188 184 190 194 195 201 200 186 179 172 175 179 193 188 185 191 193 197 198 201 194 215 208 193 199 195 204 195 203 200 203 217 212 237 262 248 230 256 257 272 263 257 249 252 232 258 205 221 235 232 232 246 264 278 267 258 255 260 264 267 271 268 269 275 261 249
201 195 192 188 192 190 186 185 179 178 183 186 187 183 182 186 187 191 190 186 184 187 194 197 196 201 204 183 178 175 180 181 197 193 195 197 194 192 192 203 203 196 192 195 193 196 197 205 235 219 240 234 240 266 293 268 261 263 270 273 298 285 276 282 256 253 229 227 228 232 236 247 256 276 276 271 269 266 265 269 274 270 268 270 272
194 197 189 196 193 191 188 182 183 181 185 184 184 185 183 184 188 189 187 188 185 187 195 196 194 198 201 216 183 184 184 188 181 197 192 198 203 200 196 204 199 181 180 177 187 185 194 195 228 183 222 202 218 235 229 253 251 276 281 278 289 258 278 281 274 263 258 248 236 234 239 242 246 252 263 274 272 273 273 268 266 268 271 268 262
189 193 196 195 189 189 185 189 185 186 183 183 184 187 181 179 184 187 188 187 188 188 191 192 194 195 195 210 209 193 197 189 190 181 190 191 200 211 216 214 185 172 173 191 182 189 185 204 182 196 219 228 224 242 206 229 244 255 256 262 265 263 262 252 266 271 266 261 253 251 261 251 249 248 252 253 270 273 273 275 278 278 275 276 276
194 194 196 191 192 189 186 188 186 189 190 186 185 183 183 181 182 185 184 189 188 191 191 192 194 196 193 195 205 210 206 191 182 177 180 188 194 206 214 205 189 177 188 179 172 187 199 209 216 188 205 244 242 256 208 238 240 251 259 262 255 258 251 254 253 258 256 284 275 266 253 252 252 248 248 251 256 263 271 284 293 288 288 282 281
197 193 192 193 194 192 187 189 188 192 192 191 186 183 180 183 183 184 186 186 192 195 193 193 196 197 199 197 197 202 214 201 179 180 176 189 196 207 208 197 188 185 181 184 193 200 186 207 227 218 199 224 229 255 266 249 254 251 255 254 248 237 239 237 247 254 295 269 266 268 272 264 253 261 261 261 261 268 280 285 282 286 285 286 280
198 196 195 191 194 192 191 192 191 192 191 189 188 185 186 182 184 187 187 190 196 194 193 190 199 201 197 206 201 199 207 212 193 183 187 187 192 198 194 191 186 185 184 180 206 198 205 194 224 228 209 210 232 239 258 264 261 275 283 283 291 280 252 246 241 250 248 259 260 256 252 267 274 265 264 264 264 276 278 278 277 278 276 274 282
196 198 197 196 191 190 191 193 189 191 192 188 186 183 179 184 184 184 194 201 199 198 192 198 199 197 204 202 202 202 205 210 206 187 188 185 188 191 187 191 180 184 181 188 199 199 208 211 215 236 216 225 230 238 261 299 298 290 273 263 262 260 271 271 257 260 261 254 257 257 282 269 274 276 279 282 284 278 276 277 279 282 277 281 282
197 195 196 194 193 187 190 191 192 189 186 184 178 181 177 183 188 196 204 208 202 199 202 204 194 201 202 199 202 203 203 206 207 198 195 188 186 189 194 182 185 174 184 195 205 191 200 206 225 220 230 241 231 244 228 246 273 276 279 280 261 265 269 257 265 255 256 253 252 270 266 272 273 276 276 281 297 285 281 281 279 277 282 283 284
200 193 192 195 194 189 184 192 192 183 181 183 185 183 187 190 197 198 206 200 201 198 204 205 202 203 197 200 201 202 204 205 206 195 201 193 192 191 185 188 188 187 192 208 200 205 205 200 208 189 212 237 250 145 194 129 319 299 284 273 287 257 253 250 247 247 245 252 264 258 260 269 265 266 267 290 278 273 274 280 283 287 285 285 285
206 193 194 197 197 195 192 191 184 187 191 190 187 190 193 194 193 202 196 191 193 199 206 204 205 198 200 202 201 201 204 205 202 197 200 193 192 187 190 194 187 198 203 198 189 197 198 202 177 193 194 199 227 189 206 154 286 236 295 319 310 287 249 249 255 261 262 271 267 263 268 267 273 269 291 287 274 275 280 280 286 287 283 285 285
199 198 198 196 200 200 198 190 188 189 196 193 186 196 197 196 193 194 188 187 206 204 208 204 197 200 202 202 200 199 199 203 200 196 196 196 195 189 198 191 189 186 184 189 190 199 197 201 190 200 209 106 225 215 197 186 233 134 123 353 306 342 337 316 315 282 266 262 274 270 276 269 266 272 275 278 273 277 274 272 271 268 274 275 277
203 204 203 203 201 202 197 196 194 194 195 196 196 198 194 186 183 157 175 173 187 194 204 202 203 203 207 200 203 198 195 197 195 194 197 195 192 196 188 179 188 180 186 190 192 205 193 195 199 212 165 224 207 241 205 206 179 125 298 209 242 93 309 315 313 279 256 276 285 259 241 257 263 281 291 268 274 273 270 259 259 263 265 270 273
204 204 202 202 202 201 199 199 198 197 197 195 196 186 161 154 141 101 125 110 53 166 197 217 206 203 201 203 205 191 192 196 195 195 197 198 192 190 183 187 179 182 183 193 194 206 207 205 188 177 181 203 235 228 229 182 207 203 183 283 311 261 224 277 353 298 83 345 274 242 258 271 288 290 269 267 258 260 267 272 263 260 262 266 270
208 208 202 203 200 200 201 202 202 200 201 198 192 177 180 177 167 171 174 188 197 187 202 207 199 195 204 188 183 185 187 191 191 192 193 190 187 183 181 178 187 181 186 196 201 181 170 170 190 193 205 209 214 208 213 235 220 234 237 229 211 270 306 260 12 295 332 222 216 264 243 243 250 263 269 270 283 283 257 265 267 264 266 266 267
214 201 202 204 203 202 201 200 200 200 201 197 184 181 185 187 191 195 196 196 202 215 214 200 196 198 167 178 184 182 188 190 194 190 186 187 186 185 184 186 187 185 188 190 185 189 194 203 199 200 215 194 163 240 233 217 99 248 235 248 274 270 80 336 266 322 301 315 2 297 298 263 247 241 271 280 284 292 282 253 263 268 267 260 260
206 196 204 202 203 203 197 201 201 201 199 191 185 188 190 193 195 200 200 202 206 213 195 186 163 162 182 189 184 193 193 191 187 186 183 182 183 185 186 185 181 184 174 191 201 207 196 188 186 201 191 179 189 207 232 201 205 253 186 231 255 277 268 222 248 248 281 297 305 275 223 279 299 284 266 276 278 276 288 298 286 276 271 269 264
201 202 203 203 203 203 202 201 204 199 197 191 189 194 196 194 196 197 202 211 209 202 162 156 164 169 182 187 190 191 189 189 182 176 178 180 180 183 183 183 181 181 179 192 204 183 190 188 176 174 194 201 199 209 213 225 197 225 132 266 218 257 268 230 213 189 250 296 287 287 309 300 276 255 262 262 269 272 271 272 278 286 285 282 273
207 205 206 199 204 201 203 201 206 199 196 194 192 196 198 191 195 198 202 205 195 175 164 173 176 175 179 185 186 185 184 181 181 178 180 185 181 182 183 183 188 187 178 189 187 183 188 185 183 189 187 197 197 186 211 221 195 206 189 169 173 157 24 342 149 220 269 223 274 296 307 312 313 301 274 275 271 271 271 279 291 289 284 280 280
205 197 200 197 192 197 200 203 207 199 196 197 192 198 197 195 199 198 201 200 192 176 173 185 180 181 189 187 187 187 181 180 172 183 181 179 186 182 181 185 183 180 183 176 177 181 180 178 175 165 173 189 190 191 210 210 176 186 201 185 216 212 237 225 259 199 186 285 305 288 297 261 274 303 310 292 277 269 269 278 279 282 281 283 287